Weather reports worldwide

Advertisment
Kyiv, Ukraine (33345): temperature & dewpoint: 13.05.2019 22:00:00 - 19.05.2019 22:00:00 (EEST)Kyiv, Ukraine (33345): wind speed: 13.05.2019 22:00:00 - 19.05.2019 22:00:00 (EEST)Kyiv, Ukraine (33345): wind direction: 13.05.2019 22:00:00 - 19.05.2019 22:00:00 (EEST)Kyiv, Ukraine (33345): reduced air pressure: 13.05.2019 22:00:00 - 19.05.2019 22:00:00 (EEST)Kyiv, Ukraine (33345): visibility: 13.05.2019 22:00:00 - 19.05.2019 22:00:00 (EEST)
Date & Time tt [°C] td [°C] ff [km/h] ff [kn] dd ppp [hPa] vv [km]
19.05.2019 22:00:00 - - - - - - -
19.05.2019 21:00:00 22,7 5,2 7 4 ESE 1013,3 20
19.05.2019 20:00:00 - - - - - - -
19.05.2019 19:00:00 - - - - - - -
19.05.2019 18:00:00 25,8 7,4 7 4 SE 1012,8 20
19.05.2019 17:00:00 - - - - - - -
19.05.2019 16:00:00 - - - - - - -
19.05.2019 15:00:00 26,2 9,6 11 6 ESE 1013,2 20
19.05.2019 14:00:00 - - - - - - -
19.05.2019 13:00:00 - - - - - - -
19.05.2019 12:00:00 23,7 11,1 11 6 ESE 1013,4 20
19.05.2019 11:00:00 - - - - - - -
19.05.2019 10:00:00 - - - - - - -
19.05.2019 09:00:00 19,0 9,8 7 4 S 1013,5 20
19.05.2019 08:00:00 - - - - - - -
19.05.2019 07:00:00 - - - - - - -
19.05.2019 06:00:00 15,1 5,5 4 2 SE 1012,8 20
19.05.2019 05:00:00 - - - - - - -
19.05.2019 04:00:00 - - - - - - -
19.05.2019 03:00:00 16,1 5,8 7 4 ESE 1013,0 20
19.05.2019 02:00:00 - - - - - - -
19.05.2019 01:00:00 - - - - - - -
19.05.2019 00:00:00 18,6 5,3 11 6 E 1013,0 20
18.05.2019 23:00:00 - - - - - - -
18.05.2019 22:00:00 - - - - - - -
18.05.2019 21:00:00 21,6 6,0 11 6 E 1011,9 20
18.05.2019 20:00:00 - - - - - - -
18.05.2019 19:00:00 - - - - - - -
18.05.2019 18:00:00 24,9 11,1 7 4 E 1011,9 20
18.05.2019 17:00:00 - - - - - - -
18.05.2019 16:00:00 - - - - - - -
18.05.2019 15:00:00 25,0 11,7 14 8 E 1012,9 20
18.05.2019 14:00:00 - - - - - - -
18.05.2019 13:00:00 - - - - - - -
18.05.2019 12:00:00 22,9 13,3 11 6 E 1014,5 20
18.05.2019 11:00:00 - - - - - - -
18.05.2019 10:00:00 - - - - - - -
18.05.2019 09:00:00 18,9 12,1 11 6 E 1014,9 20
18.05.2019 08:00:00 - - - - - - -
18.05.2019 07:00:00 - - - - - - -
18.05.2019 06:00:00 15,6 12,1 11 6 E 1015,3 20
18.05.2019 05:00:00 - - - - - - -
18.05.2019 04:00:00 - - - - - - -
18.05.2019 03:00:00 18,0 12,8 7 4 ESE 1015,1 20
18.05.2019 02:00:00 - - - - - - -
18.05.2019 01:00:00 - - - - - - -
18.05.2019 00:00:00 20,5 13,4 11 6 E 1014,8 20
17.05.2019 23:00:00 - - - - - - -
17.05.2019 22:00:00 - - - - - - -
17.05.2019 21:00:00 23,3 13,3 11 6 ESE 1013,9 20
17.05.2019 20:00:00 - - - - - - -
17.05.2019 19:00:00 - - - - - - -
17.05.2019 18:00:00 26,3 15,3 11 6 SE 1014,0 20
17.05.2019 17:00:00 - - - - - - -
17.05.2019 16:00:00 - - - - - - -
17.05.2019 15:00:00 26,1 15,1 11 6 SE 1014,6 20
17.05.2019 14:00:00 - - - - - - -
17.05.2019 13:00:00 - - - - - - -
17.05.2019 12:00:00 24,0 16,5 7 4 SE 1015,3 20
17.05.2019 11:00:00 - - - - - - -
17.05.2019 10:00:00 - - - - - - -
17.05.2019 09:00:00 18,1 14,1 7 4 SSE 1015,8 20
17.05.2019 08:00:00 - - - - - - -
17.05.2019 07:00:00 - - - - - - -
17.05.2019 06:00:00 16,4 14,1 7 4 SSE 1015,2 20
17.05.2019 05:00:00 - - - - - - -
17.05.2019 04:00:00 - - - - - - -
17.05.2019 03:00:00 16,8 13,8 7 4 SE 1015,7 20
17.05.2019 02:00:00 - - - - - - -
17.05.2019 01:00:00 - - - - - - -
17.05.2019 00:00:00 19,1 14,1 7 4 ESE 1015,5 20
16.05.2019 23:00:00 - - - - - - -
16.05.2019 22:00:00 - - - - - - -
16.05.2019 21:00:00 21,8 13,9 18 10 E 1014,8 20
16.05.2019 20:00:00 - - - - - - -
16.05.2019 19:00:00 - - - - - - -
16.05.2019 18:00:00 25,2 12,6 11 6 ESE 1014,4 20
16.05.2019 17:00:00 - - - - - - -
16.05.2019 16:00:00 - - - - - - -
16.05.2019 15:00:00 25,3 14,2 7 4 SE 1015,6 20
16.05.2019 14:00:00 - - - - - - -
16.05.2019 13:00:00 - - - - - - -
16.05.2019 12:00:00 23,6 15,3 11 6 E 1016,8 20
16.05.2019 11:00:00 - - - - - - -
16.05.2019 10:00:00 - - - - - - -
16.05.2019 09:00:00 18,4 15,5 11 6 ENE 1017,7 20
16.05.2019 08:00:00 - - - - - - -
16.05.2019 07:00:00 - - - - - - -
16.05.2019 06:00:00 15,3 14,1 7 4 NE 1017,9 4,0
16.05.2019 05:00:00 - - - - - - -
16.05.2019 04:00:00 - - - - - - -
16.05.2019 03:00:00 15,7 13,9 7 4 NNE 1018,5 10
16.05.2019 02:00:00 - - - - - - -
16.05.2019 01:00:00 - - - - - - -
16.05.2019 00:00:00 17,9 12,7 7 4 WNW 1019,1 20
15.05.2019 23:00:00 - - - - - - -
15.05.2019 22:00:00 - - - - - - -
15.05.2019 21:00:00 18,8 14,3 4 2 WNW 1017,9 20
15.05.2019 20:00:00 - - - - - - -
15.05.2019 19:00:00 - - - - - - -
15.05.2019 18:00:00 20,8 13,5 7 4 W 1017,3 20
15.05.2019 17:00:00 - - - - - - -
15.05.2019 16:00:00 - - - - - - -
15.05.2019 15:00:00 23,4 10,1 11 6 W 1017,3 20
15.05.2019 14:00:00 - - - - - - -
15.05.2019 13:00:00 - - - - - - -
15.05.2019 12:00:00 23,0 13,6 7 4 S 1016,9 20
15.05.2019 11:00:00 - - - - - - -
15.05.2019 10:00:00 - - - - - - -
15.05.2019 09:00:00 19,2 13,8 7 4 S 1017,2 20
15.05.2019 08:00:00 - - - - - - -
15.05.2019 07:00:00 - - - - - - -
15.05.2019 06:00:00 14,4 12,2 0 0 N 1017,1 20
15.05.2019 05:00:00 - - - - - - -
15.05.2019 04:00:00 - - - - - - -
15.05.2019 03:00:00 14,9 12,5 0 0 N 1017,4 10
15.05.2019 02:00:00 - - - - - - -
15.05.2019 01:00:00 - - - - - - -
15.05.2019 00:00:00 15,7 12,4 4 2 W 1017,7 20
14.05.2019 23:00:00 - - - - - - -
14.05.2019 22:00:00 - - - - - - -
14.05.2019 21:00:00 18,0 12,0 4 2 NNE 1018,1 20
14.05.2019 20:00:00 - - - - - - -
14.05.2019 19:00:00 - - - - - - -
14.05.2019 18:00:00 22,8 11,8 0 0 N 1017,0 20
14.05.2019 17:00:00 - - - - - - -
14.05.2019 16:00:00 - - - - - - -
14.05.2019 15:00:00 24,0 10,0 7 4 SSE 1017,6 20
14.05.2019 14:00:00 - - - - - - -
14.05.2019 13:00:00 - - - - - - -
14.05.2019 12:00:00 20,5 10,8 7 4 WNW 1019,1 20
14.05.2019 11:00:00 - - - - - - -
14.05.2019 10:00:00 - - - - - - -
14.05.2019 09:00:00 15,4 12,3 4 2 WSW 1020,3 20
14.05.2019 08:00:00 - - - - - - -
14.05.2019 07:00:00 - - - - - - -
14.05.2019 06:00:00 14,0 11,4 7 4 NW 1019,9 20
14.05.2019 05:00:00 - - - - - - -
14.05.2019 04:00:00 - - - - - - -
14.05.2019 03:00:00 14,0 10,6 11 6 W 1020,4 20
14.05.2019 02:00:00 - - - - - - -
14.05.2019 01:00:00 - - - - - - -
14.05.2019 00:00:00 15,4 11,5 7 4 NW 1020,8 20
13.05.2019 23:00:00 - - - - - - -
13.05.2019 22:00:00 - - - - - - -

tt = temperature
td = dewpoint
ff = wind speed
dd = wind direction
ppp = reduced air pressure
vv = visibility

Next stations